RH
38 38 38 39 43 51 61 70 84 98 102 101 98 99 102 104 106 105 104 105 105 103 103 103 104 103 102 102 102 101 101 100 101 103 104 105 105 104 105 105 102 99 98 98 97 95 94 93 91 90 88 87 85 84 81 78 76 74 72 72 71 69 69 68 68 66 64 60 55 47 39 31 25 23 22 22 21 22 22 22 22 21 21 20 20 20 20 21
27 30 30 30 32 39 52 62 70 81 94 100 99 97 97 98 100 103 104 104 105 105 105 104 103 102 103 103 103 102 101 102 103 103 103 102 104 105 106 104 102 101 100 100 99 97 95 93 90 89 87 85 84 83 80 78 77 76 75 74 72 71 70 69 66 63 59 53 45 37 29 25 22 21 22 22 22 23 23 24 23 23 23 23 23 23 24 24
15 20 23 24 25 28 40 54 64 70 81 93 97 97 96 95 93 95 99 101 102 102 103 103 103 103 106 106 105 105 103 102 103 103 103 103 104 105 105 104 103 102 100 99 98 96 93 91 89 87 85 84 83 82 81 80 79 78 76 75 74 72 69 65 61 57 52 44 36 29 24 22 22 22 23 23 24 25 25 25 25 26 26 26 27 27 27 28
9 11 15 20 22 24 30 42 57 65 71 81 91 97 97 96 93 90 90 93 97 99 100 101 101 102 105 106 105 104 103 102 103 103 104 104 106 106 105 104 102 100 98 97 96 94 91 89 87 86 86 86 86 84 82 81 79 79 77 75 72 67 63 59 56 51 43 36 29 24 22 22 22 23 23 24 25 26 26 27 27 28 29 30 29 30 30 29
7 7 8 13 17 21 25 33 44 55 64 71 80 92 98 97 95 92 88 86 89 93 96 99 101 101 101 101 102 102 101 102 102 102 102 102 103 104 103 101 99 98 97 95 93 91 88 87 88 89 90 88 86 84 82 81 80 78 74 70 65 61 58 54 50 42 34 28 24 23 23 23 23 24 24 25 26 27 28 28 29 30 31 32 31 31 30 29
6 6 6 8 12 16 21 28 34 42 54 64 70 81 94 99 98 96 92 89 88 89 92 95 98 100 101 101 100 100 100 101 100 99 100 99 100 100 99 98 96 95 93 90 87 86 87 88 91 91 89 87 84 84 83 81 76 71 67 63 60 57 54 48 40 32 27 24 24 24 24 24 24 25 25 26 27 28 29 30 30 32 32 33 32 31 29 26
6 5 5 5 7 11 16 23 28 32 41 55 64 70 81 94 100 100 97 94 92 92 92 93 95 96 97 97 97 98 98 98 97 97 97 96 96 95 94 92 90 89 87 85 85 86 88 89 90 88 87 86 85 83 79 74 68 64 61 59 56 53 47 39 31 26 25 24 25 26 26 26 25 26 27 27 29 29 30 31 31 32 33 32 31 29 27 25
6 4 4 5 5 7 11 18 24 26 32 44 56 63 69 80 92 100 100 97 96 95 95 95 94 93 93 92 93 95 95 95 94 94 93 92 91 89 87 85 84 84 82 83 84 85 87 88 89 88 87 85 81 77 71 66 62 60 59 57 53 47 39 31 26 25 25 26 27 27 27 26 26 27 28 28 30 31 31 31 31 32 33 31 29 28 26 25
6 5 3 4 5 6 9 14 19 22 27 36 48 58 63 67 76 88 96 99 98 96 96 97 95 94 93 92 92 93 93 92 91 90 88 86 84 83 81 80 79 79 80 81 83 86 89 90 89 87 84 79 74 69 65 61 60 58 56 54 50 41 32 27 25 25 26 27 27 27 27 26 27 28 29 30 32 33 33 32 32 33 32 31 29 27 26 25
6 5 5 4 5 6 8 10 14 20 26 34 44 53 60 62 65 73 83 92 96 97 96 96 96 95 94 91 90 90 89 87 86 85 83 81 80 79 78 77 77 77 80 84 87 90 90 89 85 82 77 73 69 65 61 58 57 56 55 52 47 38 30 26 25 25 26 27 28 29 29 28 28 30 31 33 35 35 34 33 33 33 32 30 29 28 27 26
9 6 6 5 5 7 9 10 11 18 28 36 44 52 58 61 62 64 70 80 89 94 96 97 96 95 93 91 89 86 84 83 82 80 79 78 77 76 75 75 77 80 85 90 91 90 87 84 80 77 74 70 66 61 58 57 56 56 55 52 46 37 30 27 26 27 28 29 31 31 31 30 29 32 34 36 36 35 34 33 33 33 31 30 29 28 27 27
12 9 8 7 8 10 12 13 13 19 31 39 45 52 58 62 63 63 64 70 78 84 89 92 92 91 90 88 86 83 81 79 78 77 76 75 74 74 75 76 80 85 90 91 89 86 83 80 77 74 71 68 63 61 59 58 58 58 57 53 47 40 32 29 28 29 31 32 32 33 34 33 31 33 35 36 36 35 33 33 33 32 31 31 29 29 28 28
21 17 13 11 12 14 16 16 15 21 32 42 47 52 59 65 68 68 67 68 72 76 79 80 81 82 81 80 79 77 75 73 72 72 71 71 74 76 78 82 87 90 91 89 86 83 80 78 76 73 71 69 66 63 61 59 61 61 59 56 50 44 37 32 31 31 31 32 32 34 37 36 33 33 35 36 35 34 33 33 33 33 32 31 30 30 29 29
30 31 27 22 19 18 19 20 21 26 34 43 51 58 64 68 71 72 72 71 71 71 71 71 71 71 70 69 69 68 67 67 68 70 73 77 82 86 89 92 94 93 90 87 84 81 80 78 77 75 73 72 69 65 61 60 62 63 63 60 54 48 41 35 32 31 31 32 34 34 36 36 33 33 34 34 34 34 34 34 35 34 32 32 31 30 30 32
28 34 38 39 37 34 33 33 35 39 46 54 60 66 71 74 77 76 75 73 70 70 68 67 65 64 62 63 66 67 69 71 74 79 84 90 94 97 98 97 95 92 90 87 84 82 81 80 78 76 76 76 74 69 64 61 63 65 66 65 61 54 46 39 33 32 33 34 34 33 34 35 33 33 33 33 34 36 37 36 35 34 33 32 31 31 33 36
30 33 38 46 51 53 56 58 60 61 66 73 76 79 82 84 84 81 78 75 73 72 70 68 67 67 66 69 75 78 82 86 89 93 96 99 100 101 99 96 94 92 90 87 85 83 81 79 78 77 80 83 81 75 67 64 66 70 72 72 70 63 52 43 36 34 34 34 34 33 33 34 33 33 33 34 36 39 38 36 34 33 32 31 31 33 37 43
35 41 48 59 64 63 62 64 68 71 73 77 81 84 86 87 84 80 78 77 77 76 76 77 78 79 80 83 90 94 98 101 102 104 106 105 103 102 99 97 95 92 89 86 83 80 78 78 80 83 86 86 84 79 71 68 74 80 82 81 77 70 59 47 40 36 34 34 33 32 32 34 33 34 35 37 40 41 38 36 34 32 32 32 34 38 44 50
46 49 56 71 80 77 71 64 62 64 64 66 72 75 77 78 76 76 77 79 80 80 86 93 93 93 94 96 100 103 106 108 109 110 109 107 105 102 98 95 92 88 83 78 76 76 78 81 83 86 87 84 83 81 75 74 81 89 92 90 84 77 67 55 44 37 34 34 33 32 34 35 35 36 38 40 42 41 37 34 33 32 33 34 38 45 51 50
50 51 55 65 75 77 76 72 67 67 68 68 69 71 74 75 76 79 81 84 85 84 88 92 90 91 96 101 105 108 109 110 108 106 104 102 100 95 91 86 82 78 73 72 75 79 82 83 85 87 87 83 82 82 80 80 85 91 94 92 88 83 76 63 47 37 33 33 34 33 35 37 39 40 41 42 42 38 34 33 32 33 35 38 46 53 51 38
51 50 51 56 61 63 63 65 65 66 72 78 80 81 85 87 89 90 87 88 93 94 91 90 89 93 100 104 107 110 112 111 109 106 102 99 94 88 82 79 76 73 73 75 79 80 79 80 82 84 86 84 83 84 82 82 85 90 92 91 88 85 78 62 44 35 32 33 35 35 38 42 42 42 42 42 40 35 32 32 33 36 39 46 54 51 38 25
59 57 54 53 54 53 52 55 61 63 67 75 85 91 95 96 94 90 84 88 97 99 98 99 101 102 103 102 103 107 109 108 107 104 100 95 89 83 79 77 77 78 79 79 78 76 75 77 80 84 86 84 84 84 80 80 84 87 88 87 85 80 68 52 39 35 34 34 36 38 42 46 46 44 41 40 38 33 32 34 36 40 47 54 52 38 25 22
69 65 62 59 58 56 52 49 53 61 64 69 80 88 92 89 83 81 80 86 95 99 100 102 103 102 101 100 101 103 104 103 103 101 97 92 87 85 85 86 87 87 83 79 77 77 77 80 86 90 88 86 85 82 78 80 85 86 84 83 80 69 53 42 37 37 36 36 37 40 43 48 49 44 40 38 35 33 35 36 40 49 55 50 37 26 24 28
90 81 74 69 65 63 62 57 51 51 54 61 71 79 84 83 82 86 90 93 97 100 102 101 101 101 99 100 100 101 103 103 103 103 100 96 94 92 93 92 90 86 81 80 82 84 85 89 94 95 91 88 85 80 78 83 85 82 80 79 72 59 46 40 39 39 39 38 38 38 40 45 47 42 39 37 34 35 36 39 50 58 49 33 25 26 29 33
103 99 94 87 82 77 73 70 64 57 53 54 59 66 76 83 88 93 98 103 103 101 101 100 101 100 98 99 100 99 100 100 102 105 104 102 100 96 93 90 85 81 81 85 91 91 92 96 97 97 93 89 85 81 82 84 83 81 80 77 68 57 48 42 39 39 40 42 41 39 38 40 43 41 37 36 36 36 37 48 61 52 31 21 25 30 33 34
101 102 102 99 96 95 91 85 77 71 63 56 54 58 64 74 87 96 101 102 101 101 101 100 100 100 100 103 105 102 99 100 103 103 104 102 100 96 90 84 81 84 89 93 96 94 94 98 99 99 96 90 86 84 83 82 83 84 81 75 67 57 49 43 39 37 38 41 43 41 37 37 41 39 36 37 36 34 44 60 57 33 20 24 29 32 35 35
98 99 100 97 92 90 90 87 83 82 76 65 56 55 56 61 71 86 98 101 99 101 101 100 101 100 100 103 104 103 100 101 103 102 103 100 95 92 87 84 85 92 96 96 96 94 94 100 102 100 96 91 88 86 83 81 82 83 80 75 67 56 47 42 39 37 37 37 39 39 37 37 39 39 40 39 33 38 54 57 38 23 26 31 31 34 34 33
99 97 94 88 81 74 69 66 69 74 77 74 66 60 59 59 60 68 86 97 97 101 102 100 102 101 101 100 97 98 98 100 102 102 102 98 94 91 90 91 94 97 96 93 95 96 98 103 103 100 97 94 91 87 83 82 81 81 78 72 62 50 43 40 38 37 36 34 35 37 38 39 40 44 45 37 32 45 54 42 28 28 34 34 33 34 32 32
99 98 90 79 69 62 54 48 49 52 58 66 71 71 68 66 64 63 76 89 91 99 106 103 103 102 100 100 101 103 103 102 102 101 101 100 97 96 95 96 96 96 94 92 97 100 101 104 103 100 97 94 90 86 85 84 82 79 75 66 54 44 40 37 36 35 33 33 34 37 40 42 49 53 44 32 34 46 46 35 31 34 37 37 34 33 32 32
99 98 91 78 63 52 45 39 37 38 42 47 56 66 69 70 72 70 74 78 80 93 104 100 97 97 97 103 107 109 109 106 102 101 103 103 99 96 93 92 94 96 97 98 99 100 102 104 103 100 96 92 88 88 89 86 83 79 71 58 45 40 37 33 33 32 31 34 34 38 45 51 63 59 36 25 32 40 43 38 34 35 38 38 34 33 33 33
97 94 87 75 58 45 39 35 34 35 36 37 40 47 58 68 76 79 75 66 69 89 102 99 95 97 103 107 107 106 107 105 101 103 105 101 95 92 91 94 99 99 99 100 100 101 104 105 103 100 94 91 91 94 92 89 87 78 63 49 40 37 33 30 31 31 31 35 37 46 56 66 76 57 24 19 29 37 43 40 35 36 38 37 35 34 34 35
92 88 79 66 50 40 37 35 34 36 35 34 33 34 43 55 70 80 74 63 70 85 92 96 100 105 109 107 103 102 101 101 103 105 104 97 92 94 98 100 99 98 100 103 104 105 108 107 104 100 95 96 99 100 96 92 87 74 55 42 36 32 29 28 30 32 34 38 46 58 68 78 77 45 17 22 31 36 43 41 38 37 35 36 36 35 35 37
86 78 65 52 42 36 35 36 36 37 35 32 29 29 34 43 58 69 68 67 79 83 83 92 102 105 106 102 101 103 102 103 105 101 96 95 98 102 103 100 96 96 101 107 109 108 109 109 104 98 97 101 104 102 97 93 84 67 49 38 33 29 27 28 31 33 38 46 59 71 75 76 62 31 18 28 33 37 44 42 39 36 35 36 36 35 37 38
76 64 51 41 35 32 33 37 37 37 35 30 28 28 30 37 49 61 67 73 82 87 91 99 103 102 102 101 104 106 105 104 100 92 91 98 104 105 102 100 98 97 99 104 107 104 104 107 106 103 103 105 105 101 95 89 76 58 44 36 31 28 27 29 32 36 46 59 69 69 63 58 43 25 25 32 34 40 43 39 37 37 37 37 36 38 40 40
64 51 40 34 32 30 31 34 37 36 34 30 28 28 32 39 47 58 64 69 78 91 100 102 102 101 101 101 104 105 104 102 97 92 95 102 106 104 100 99 100 100 100 101 99 96 96 101 105 107 107 106 105 101 91 79 63 47 39 33 30 30 31 31 34 45 58 62 60 50 43 43 37 30 31 32 34 38 38 36 38 40 41 40 41 43 45 45
52 42 35 30 28 27 28 31 34 34 32 31 29 30 35 41 48 54 58 70 89 101 102 101 102 102 101 101 102 102 100 99 98 97 102 107 105 100 99 100 102 103 103 100 94 91 91 97 105 108 107 106 103 94 80 63 47 37 33 31 31 33 33 35 44 58 58 45 39 37 37 44 44 39 35 32 33 37 37 38 41 44 45 45 48 49 51 53
42 35 30 27 26 25 26 28 30 31 32 32 32 33 37 43 49 54 63 84 103 104 100 101 102 101 100 99 97 95 91 91 97 103 107 106 102 99 100 101 102 103 103 99 95 90 89 97 106 107 106 101 86 69 55 45 36 31 31 33 33 33 37 45 53 55 43 29 31 36 40 51 54 44 37 34 36 38 40 42 45 48 50 52 55 57 59 62
34 29 25 24 23 23 24 26 28 31 33 34 35 37 40 45 52 60 74 95 106 102 101 102 101 101 103 103 99 93 91 94 101 106 104 102 100 99 100 100 101 102 101 98 97 95 92 97 106 110 102 80 56 43 38 35 31 31 35 35 34 36 44 50 46 40 33 29 34 38 44 56 55 42 37 39 41 44 46 50 53 56 59 61 63 66 69 73
27 24 21 21 21 22 23 25 28 33 36 38 39 41 44 49 56 66 84 102 105 101 102 101 100 102 104 106 104 100 100 103 103 102 100 98 98 98 100 102 102 101 102 100 98 97 96 98 100 97 79 52 37 34 33 32 33 37 39 37 40 44 43 39 33 32 33 33 35 36 43 57 53 40 40 45 47 51 54 58 62 65 69 71 72 76 80 83
21 19 18 18 20 22 23 25 30 36 41 43 44 47 51 58 65 71 87 104 105 101 101 100 99 101 103 105 104 103 104 104 102 99 96 95 97 100 102 102 102 103 104 101 98 101 101 90 72 58 46 35 32 33 33 37 40 40 42 45 48 44 35 29 31 35 36 36 37 34 40 57 55 42 46 52 53 57 60 64 69 74 78 79 80 84 87 86
17 16 16 17 19 22 24 27 33 39 45 48 49 53 59 70 82 85 91 101 102 97 96 96 97 100 103 104 104 104 104 102 98 96 96 98 100 102 102 103 105 104 102 101 104 102 87 61 41 33 32 31 33 37 39 41 41 44 51 52 44 33 28 30 35 38 38 38 40 36 43 59 57 47 52 55 55 61 65 69 75 79 81 81 81 83 82 80
15 15 15 16 18 21 24 28 34 40 46 50 54 60 68 79 94 99 99 101 101 96 96 99 103 105 105 106 106 102 98 96 97 97 101 103 103 105 106 105 103 101 103 104 98 78 52 36 31 31 33 36 41 43 42 43 49 55 54 44 32 28 31 34 36 39 40 41 44 41 45 58 59 54 57 58 61 66 68 70 73 75 77 76 76 76 75 74
14 14 14 14 17 20 24 29 35 40 47 52 57 63 69 76 84 90 92 94 95 96 99 104 108 108 106 101 96 92 91 96 102 103 104 105 106 107 104 101 102 104 102 88 66 44 32 30 32 35 40 44 46 46 49 57 61 56 43 32 29 32 36 38 39 40 40 43 47 44 45 54 60 62 63 62 63 65 65 67 69 71 73 73 72 72 72 73
13 14 13 14 17 21 25 30 35 40 45 49 53 58 63 69 75 80 84 90 96 100 103 106 105 101 94 89 89 91 96 102 105 107 107 106 104 102 102 106 106 96 77 54 38 31 31 34 38 41 45 49 54 59 65 65 56 42 33 31 34 38 42 45 45 43 42 45 48 47 48 56 65 68 64 59 60 63 66 70 72 72 73 73 73 74 75 76
13 14 14 15 18 22 27 31 35 39 41 44 50 57 63 71 77 83 89 96 102 103 100 96 91 87 87 91 97 100 102 105 107 107 106 104 104 106 108 102 84 62 43 33 32 34 38 41 41 42 47 58 70 74 69 58 44 35 34 36 40 45 47 49 49 47 47 47 51 56 57 63 69 67 61 60 65 69 73 75 75 75 75 75 75 75 76 76
14 15 16 18 20 23 28 30 32 35 37 40 48 57 67 76 82 88 92 93 93 91 87 84 85 89 95 100 103 104 105 107 105 104 105 109 111 105 90 68 48 36 32 33 37 40 42 43 44 51 61 65 62 54 46 41 35 34 37 41 45 48 49 51 52 51 51 51 57 62 61 65 72 69 64 68 72 74 76 77 76 77 76 76 74 73 73 74
13 16 18 21 24 26 29 31 34 37 39 43 49 57 68 77 81 84 86 85 82 82 84 88 92 97 100 103 106 107 106 104 104 107 110 105 92 72 53 39 33 34 36 39 42 41 44 51 60 71 72 58 42 33 30 31 32 36 41 45 48 50 52 54 55 55 54 53 57 64 65 69 74 71 66 69 72 73 74 75 75 76 75 73 72 71 70 69
13 16 18 22 26 29 31 34 39 44 47 49 54 60 68 74 76 78 79 80 82 86 89 92 95 99 104 106 106 104 103 105 109 109 97 76 55 41 35 35 37 39 41 41 40 43 55 70 77 75 63 45 33 31 31 33 36 40 44 49 51 51 52 55 57 57 56 55 61 70 73 70 68 67 66 68 70 71 73 75 75 73 70 69 69 68 66 64
14 17 20 24 28 30 32 35 40 45 48 52 56 60 65 69 72 75 78 81 86 90 94 98 102 105 106 105 104 105 107 109 103 86 63 45 36 35 38 40 40 40 40 43 50 60 71 77 71 62 50 36 31 34 37 39 41 43 47 51 51 50 52 56 62 64 64 65 69 72 72 70 69 70 72 73 73 73 74 72 70 69 69 69 68 66 65 63
16 19 22 25 27 29 32 35 39 43 47 50 54 57 62 68 73 78 84 89 94 98 102 106 107 104 103 105 108 107 100 88 72 52 39 38 39 41 41 40 40 44 50 59 67 69 68 63 55 49 44 37 37 42 45 47 48 50 54 57 56 57 61 65 70 73 71 70 74 76 79 81 80 78 78 77 75 71 69 70 73 77 76 70 67 65 64 60
17 20 22 25 26 28 31 34 37 42 45 49 55 61 67 74 81 86 91 96 101 105 106 107 107 107 108 105 97 84 67 52 43 38 40 42 41 39 41 45 52 60 64 66 65 59 53 48 43 40 43 45 47 51 54 56 56 58 62 66 67 69 70 70 75 78 75 76 84 89 88 87 84 81 77 74 70 68 72 78 82 81 75 69 64 61 57 52
19 22 24 25 26 28 32 37 41 47 53 59 67 74 79 85 90 95 99 102 106 110 110 107 105 100 90 76 62 50 41 38 40 41 41 40 41 45 53 58 60 60 57 55 53 48 42 39 37 40 48 54 57 59 61 59 58 62 69 72 72 71 70 73 83 87 83 82 89 91 86 83 79 74 69 70 74 78 83 85 81 74 67 61 56 52 48 46
23 25 28 31 34 38 43 50 57 62 68 74 82 87 91 95 99 102 104 105 104 102 96 88 77 65 53 45 40 39 40 41 41 39 40 46 54 58 56 51 46 46 47 47 45 40 36 37 41 45 52 58 60 61 59 57 59 63 68 70 69 71 76 85 95 98 91 86 88 84 78 73 69 65 67 73 80 82 80 75 68 60 54 49 48 48 45 43
Wind_Speed
36 38 41 45 49 53 54 53 52 52 50 49 48 47 47 46 46 45 44 43 42 42 42 43 43 42 42 42 43 43 42 42 42 43 43 44 44 45 45 46 47 47 48 48 49 49 50 50 51 51 52 53 53 54 55 56 56 57 58 58 58 59 58 58 57 56 55 54 53 52 51 49 48 47 47 47 47 48 49 50 51 51 52 53 53 54 55 56
38 40 42 44 49 53 56 55 54 53 52 51 49 48 47 47 47 46 45 44 43 43 42 42 42 42 42 42 42 42 42 41 41 41 42 43 43 44 44 45 45 46 46 47 47 48 48 49 50 51 52 52 53 54 55 55 56 56 57 57 57 57 56 55 55 54 53 52 51 49 47 46 45 45 46 47 48 49 50 51 51 52 53 54 55 56 57 58
36 40 42 43 46 51 55 56 56 55 55 53 51 49 48 47 47 46 46 46 44 43 43 42 42 42 42 41 42 42 42 42 41 41 41 41 42 42 43 43 44 45 45 45 46 47 48 49 50 51 52 52 53 53 53 54 54 54 55 55 55 54 54 54 53 52 51 50 48 47 45 44 44 45 47 48 49 51 51 52 53 54 55 56 57 58 60 61
32 37 41 44 45 47 52 56 57 58 57 55 53 50 49 48 47 47 47 46 45 44 43 42 42 41 41 41 41 42 42 42 42 42 41 41 41 42 42 43 44 44 45 46 47 48 49 49 50 50 51 51 51 52 52 53 53 53 53 53 53 53 52 52 52 51 49 48 47 45 44 43 44 46 48 49 51 53 53 53 54 55 57 58 60 61 63 64
26 31 38 44 46 46 48 53 58 60 59 56 54 51 49 48 48 47 47 46 45 44 42 41 41 41 41 41 40 41 41 41 41 41 41 42 42 42 42 43 44 45 45 46 47 48 48 48 49 49 49 49 50 51 51 51 51 51 51 51 52 52 51 51 50 49 48 46 45 45 44 44 45 48 50 51 52 54 55 55 56 57 59 61 62 63 65 66
22 26 32 41 45 46 46 50 55 58 58 56 53 51 50 48 48 47 47 46 45 43 42 41 40 40 40 40 40 40 40 40 41 41 41 42 42 43 43 44 45 46 46 47 47 47 47 47 47 47 48 49 49 49 49 49 49 50 50 50 50 50 49 49 48 47 46 45 44 45 45 46 47 50 52 53 54 56 57 57 58 59 61 63 64 65 67 67
17 22 28 35 42 45 45 47 52 55 56 56 53 51 49 48 48 47 46 46 44 43 42 41 40 40 40 40 40 40 40 40 41 41 41 42 42 43 44 45 45 46 46 46 46 46 46 46 46 47 47 47 47 47 47 48 48 49 49 49 48 48 48 47 46 45 45 44 45 46 48 49 49 51 54 55 56 57 58 59 60 62 64 65 66 67 68 69
13 17 23 30 35 41 45 46 48 50 52 53 52 51 49 48 48 47 46 45 44 43 42 41 41 41 41 40 40 40 40 40 41 41 41 41 42 43 44 44 44 45 45 45 45 45 45 45 45 46 45 46 46 46 47 47 47 47 47 47 46 46 46 46 45 45 45 45 47 49 50 51 51 53 55 56 58 59 60 61 62 64 65 66 67 69 70 70
10 13 19 24 30 36 43 45 44 44 46 49 51 50 49 48 47 47 45 44 43 42 42 42 41 41 41 40 40 40 40 41 41 41 41 42 42 43 43 44 44 44 44 43 43 43 43 44 44 44 44 45 45 45 45 45 45 46 45 45 45 45 46 46 45 45 46 47 49 51 53 53 53 54 57 58 60 61 61 62 64 65 66 67 69 70 71 71
9 11 15 20 26 32 38 41 41 39 40 43 46 47 48 47 46 45 44 43 42 41 41 41 40 41 40 40 40 40 41 41 41 42 42 42 43 43 43 43 43 42 42 42 42 42 42 42 43 44 44 44 44 44 44 44 44 44 44 45 45 45 46 46 46 47 48 49 51 53 55 54 54 55 57 60 61 62 63 64 65 67 68 68 70 70 71 71
13 12 14 17 21 26 32 36 37 36 36 38 41 44 45 45 44 43 43 42 41 40 39 39 40 40 40 40 40 40 41 41 41 42 42 42 42 42 42 41 41 40 40 40 40 41 41 42 42 42 42 43 43 43 43 43 43 43 44 45 45 45 46 47 48 48 49 51 52 54 57 56 54 56 58 60 63 64 64 65 66 67 68 69 70 71 71 71
15 14 15 16 18 21 26 31 33 34 33 33 35 39 41 42 42 41 40 40 39 38 37 38 38 39 39 40 40 40 40 40 40 40 40 40 40 40 40 40 39 39 39 39 40 40 41 41 41 41 42 42 42 42 42 43 43 43 44 45 46 46 46 47 49 50 50 52 53 54 58 59 56 56 59 61 64 65 65 65 66 68 68 69 71 72 72 71
15 15 15 16 17 19 22 26 29 31 31 31 32 34 36 38 39 38 38 37 36 36 35 36 36 37 38 38 38 38 38 39 39 39 39 39 39 39 39 38 38 38 38 39 39 40 40 40 41 41 41 42 41 42 42 43 43 44 45 45 46 47 47 48 50 51 52 53 54 54 58 61 58 57 59 62 64 66 66 65 66 68 69 70 72 72 72 70
16 16 16 16 17 19 21 23 25 27 28 28 29 30 32 34 35 36 36 35 34 34 34 35 35 36 36 36 36 36 37 37 37 37 37 37 37 37 37 36 37 37 38 38 38 39 39 40 41 41 41 41 41 42 42 43 44 44 46 46 47 48 48 49 51 52 53 54 55 55 58 62 61 59 60 62 64 66 67 66 67 69 70 71 72 72 71 70
15 16 16 15 15 16 18 20 22 23 24 25 26 27 29 30 32 33 34 33 33 33 33 33 34 34 34 34 34 35 35 35 35 35 35 35 35 35 35 36 36 37 37 38 38 39 40 40 41 41 41 41 42 42 43 44 45 45 46 47 48 50 50 51 52 53 54 55 57 57 59 63 63 62 62 62 64 66 67 67 68 70 71 72 72 71 71 69
12 13 14 13 12 13 15 17 18 20 21 22 23 24 25 27 29 30 31 31 31 31 31 31 32 32 32 32 32 33 33 33 33 33 34 34 34 35 35 36 36 37 37 38 39 39 40 41 41 41 41 42 42 43 44 45 46 46 47 49 50 51 51 52 53 54 55 56 58 58 60 64 64 63 64 64 65 67 68 69 70 71 72 72 72 70 69 68
12 12 12 12 11 11 13 15 17 18 19 20 21 23 25 27 28 28 28 29 29 29 29 29 30 30 30 30 30 31 31 31 32 32 33 34 34 35 35 36 37 37 38 39 39 40 40 41 41 41 41 42 43 44 45 45 47 48 49 50 51 52 52 52 54 55 56 57 59 59 61 64 65 64 65 65 67 68 69 70 71 72 72 72 71 69 68 66
11 12 12 12 12 12 13 14 16 17 18 19 20 22 24 25 26 26 26 27 28 28 27 27 28 29 29 29 29 30 31 31 32 32 33 33 34 35 36 37 37 38 39 39 40 40 40 41 41 42 42 43 45 45 46 46 47 48 49 50 51 53 53 53 54 55 56 58 60 60 61 64 65 65 66 67 68 70 70 72 72 72 72 71 69 67 66 63
6 9 11 12 13 13 14 15 16 17 17 18 20 22 23 24 24 25 25 26 27 28 28 29 29 29 28 29 29 30 31 32 32 33 34 35 36 36 37 38 38 39 39 40 40 40 41 42 43 43 44 45 46 46 47 47 48 49 49 50 51 53 55 55 55 55 55 57 60 61 62 64 65 66 68 69 70 71 71 72 71 71 71 69 67 66 63 57
3 4 7 10 13 15 16 17 17 18 18 19 20 22 23 23 24 25 26 26 27 28 29 29 28 28 28 28 29 30 31 32 33 34 35 36 36 36 37 37 38 39 39 40 40 41 42 43 45 46 46 47 47 47 47 49 49 49 50 51 52 53 55 56 56 56 56 56 59 61 63 66 66 67 69 71 72 71 71 71 70 71 69 67 66 63 56 49
3 2 3 6 9 12 15 16 18 19 19 20 21 22 23 25 26 27 27 26 26 27 27 27 27 27 28 28 29 31 32 33 33 34 34 35 35 36 36 37 38 38 39 40 41 42 43 44 46 47 47 48 47 47 48 50 50 50 51 52 53 54 55 57 57 57 57 57 58 61 64 68 69 69 70 72 72 72 71 70 70 69 67 65 62 55 47 43
2 2 3 4 6 8 11 13 15 17 19 21 22 23 25 27 28 27 26 26 26 26 26 27 27 28 28 29 30 31 32 33 33 34 34 35 35 35 36 36 37 38 39 41 42 43 44 46 47 47 48 48 48 48 50 51 51 51 52 52 54 54 55 56 57 58 58 57 58 60 63 68 72 72 72 73 73 71 70 69 68 67 65 61 54 47 42 42
6 6 6 7 8 9 11 12 14 15 17 19 22 24 26 27 27 27 27 26 26 27 27 28 29 30 31 31 32 32 33 33 34 35 35 35 35 35 36 36 37 39 41 43 44 45 46 47 48 48 48 48 49 50 51 52 52 52 53 53 54 55 55 55 56 58 60 60 59 59 61 67 73 74 74 73 72 71 69 67 66 64 61 54 45 42 43 44
8 9 10 11 12 13 14 15 16 17 17 18 20 23 25 26 27 28 28 27 28 28 29 31 33 34 34 34 34 34 34 35 35 35 36 36 37 37 38 39 41 42 43 44 45 46 48 48 48 49 49 50 51 52 52 52 52 53 54 54 55 56 56 56 56 57 59 62 62 62 62 66 73 76 74 72 71 70 67 64 63 61 54 46 41 42 44 45
10 11 12 13 14 16 18 19 20 21 21 21 20 21 23 25 27 29 30 30 30 30 31 34 35 35 35 35 36 36 35 35 35 36 37 38 39 40 41 42 43 44 44 45 46 48 49 49 49 50 50 51 52 53 52 52 53 54 55 56 56 56 57 57 57 57 58 61 64 65 64 64 71 77 74 71 69 65 62 60 59 55 47 43 42 43 45 46
13 14 14 16 17 18 20 22 24 25 26 25 24 23 23 25 27 29 31 32 33 34 35 35 36 37 37 37 38 38 37 36 36 38 39 40 41 41 42 43 44 45 46 47 48 50 50 50 50 50 52 53 54 54 54 54 54 55 57 57 57 57 58 58 59 59 59 61 63 66 66 64 69 76 75 70 64 60 58 56 54 49 44 43 44 44 46 46
16 16 17 18 19 21 22 24 26 28 29 30 29 28 27 27 27 29 31 34 35 36 37 37 38 40 41 41 41 40 39 38 38 39 40 41 42 42 43 44 45 46 48 49 50 52 51 50 50 51 53 54 54 55 55 56 55 56 57 57 58 58 58 59 59 60 61 62 63 66 67 66 68 74 74 67 60 55 51 50 50 47 44 45 46 46 46 46
19 20 20 21 21 23 25 26 27 30 31 33 33 33 32 31 30 29 32 35 36 36 38 39 41 43 43 43 43 42 41 39 39 41 41 41 42 43 44 46 47 49 51 51 51 51 51 50 51 52 54 54 55 56 57 57 57 57 58 58 58 58 59 59 59 61 61 62 63 64 67 66 67 72 71 62 55 49 45 48 50 47 45 47 48 48 48 47
22 22 23 24 25 25 26 27 28 30 32 34 35 36 35 34 33 32 33 37 37 37 39 40 41 42 42 42 43 42 41 40 40 41 42 42 44 45 47 48 49 50 52 52 50 50 50 50 52 53 54 55 56 57 58 59 59 59 59 59 59 58 59 59 60 61 60 61 63 63 65 65 66 71 66 54 47 40 42 49 51 48 47 48 49 49 49 49
24 24 25 26 27 27 27 28 28 29 31 33 35 36 37 37 35 34 36 37 37 37 39 40 39 39 39 39 40 40 39 39 40 41 42 44 46 48 49 49 51 52 51 50 49 48 49 50 52 54 55 56 58 59 60 60 60 60 61 60 59 59 59 59 59 60 59 60 60 61 63 64 68 69 56 45 39 38 43 51 52 50 50 50 50 51 51 52
25 25 27 28 28 28 28 28 28 29 30 32 34 35 37 38 37 37 37 36 35 36 36 35 34 34 35 36 36 36 36 38 39 41 43 46 47 49 50 51 51 50 48 47 47 47 49 51 53 55 57 58 60 61 61 61 61 62 62 61 60 59 58 57 58 58 57 57 56 57 60 63 70 67 49 40 39 40 44 51 53 53 52 52 53 53 53 54
27 27 28 29 29 28 27 27 28 29 30 30 31 33 35 37 37 37 36 35 34 34 31 29 30 31 33 35 35 35 35 37 40 42 44 46 48 50 51 51 50 47 45 45 46 47 49 52 54 56 59 60 61 62 62 62 62 63 63 63 62 60 57 55 55 55 54 52 51 54 58 62 69 62 46 41 43 43 46 51 53 54 54 54 55 55 56 57
29 29 30 30 30 28 26 26 28 29 29 29 29 30 32 35 36 35 35 34 33 33 30 28 30 32 34 35 36 36 37 39 41 43 45 46 48 50 51 50 49 47 45 44 45 47 49 52 56 58 60 62 63 63 63 63 63 64 64 64 63 62 57 53 52 51 49 47 48 52 56 60 64 57 47 44 45 46 49 52 54 56 56 56 57 58 60 60
30 31 31 31 30 28 26 25 27 28 28 28 28 28 29 32 33 33 33 33 32 31 30 30 32 34 36 36 36 36 37 40 42 43 45 46 48 50 51 50 49 48 47 47 47 48 50 53 57 60 61 63 64 64 64 64 64 64 64 64 63 63 60 55 52 49 46 43 44 48 53 57 60 54 48 46 47 48 51 54 56 58 59 59 60 62 63 64
32 32 33 31 30 27 25 24 26 26 26 26 26 26 27 28 30 30 31 31 30 30 30 31 34 36 36 35 35 37 38 40 42 44 45 47 48 50 50 49 49 49 49 50 50 51 52 55 58 61 63 64 64 65 65 65 65 63 63 63 62 61 60 56 52 49 44 39 38 43 48 55 59 56 50 48 48 51 53 55 57 60 62 63 64 65 67 68
33 33 33 31 29 27 25 24 24 25 24 24 24 24 25 26 27 27 28 29 29 30 32 34 36 36 36 35 36 38 39 40 42 44 46 49 50 50 49 48 49 50 51 52 54 54 55 57 60 62 64 65 65 65 65 66 65 63 62 62 61 59 58 55 49 44 40 35 35 40 46 54 59 58 54 52 51 53 55 57 59 62 64 66 67 69 70 72
33 33 32 29 27 25 24 23 23 23 22 22 22 23 24 25 25 26 26 27 29 31 34 37 38 38 38 38 39 40 40 42 43 45 47 49 49 49 48 49 51 52 53 55 56 57 58 59 61 64 65 66 65 65 65 66 65 63 62 61 59 56 54 51 44 38 35 34 35 39 45 55 59 57 56 56 56 58 60 61 63 66 68 69 71 73 74 76
33 31 29 27 25 23 22 22 21 21 21 21 21 22 23 24 25 25 26 27 30 33 36 38 39 40 40 40 42 43 43 44 45 47 48 48 48 48 49 51 52 54 55 57 58 59 61 61 62 64 66 65 65 64 64 64 64 62 61 59 57 54 48 43 38 35 34 34 35 37 43 55 60 57 56 58 59 61 63 65 68 70 73 74 74 76 78 79
31 28 26 24 22 22 21 21 20 20 20 20 21 21 22 23 24 25 27 29 31 34 36 37 38 40 40 41 42 43 44 45 47 48 47 47 48 49 51 53 54 55 57 59 60 62 63 63 61 63 64 64 64 64 63 62 61 60 58 57 55 50 43 37 36 37 37 37 37 37 41 54 61 58 58 60 61 63 65 66 70 73 75 76 76 78 80 81
27 25 23 21 20 21 21 20 19 19 19 20 21 21 22 22 23 25 28 30 32 34 35 35 36 37 38 40 40 41 43 45 47 47 47 47 49 51 52 54 55 57 59 60 62 63 63 63 61 61 62 62 62 63 61 60 58 56 56 54 49 43 38 36 37 40 41 40 41 39 41 54 63 60 60 62 62 65 67 68 71 74 76 78 79 81 83 84
24 22 21 20 20 20 20 20 19 19 19 20 21 22 22 23 24 26 28 30 32 33 33 34 34 35 36 38 40 41 42 44 45 46 47 49 51 52 54 56 57 58 60 62 63 64 62 61 59 60 61 61 62 62 59 57 56 55 53 49 43 39 38 38 38 42 44 45 46 43 43 54 64 63 62 64 65 67 70 71 73 76 79 81 82 85 87 88
21 21 20 19 19 19 19 19 19 19 19 20 22 23 24 24 25 27 28 29 30 31 32 32 33 35 36 38 40 41 41 42 45 47 49 51 53 54 56 57 58 60 61 62 63 62 61 59 58 58 59 60 60 58 56 55 55 54 49 43 40 41 42 42 42 43 45 48 50 48 46 54 64 66 65 66 68 71 73 76 78 80 83 86 87 89 91 92
19 19 19 18 18 18 18 19 19 20 20 21 22 23 24 24 25 26 27 28 29 30 31 33 34 36 38 39 40 41 41 42 46 48 50 52 54 56 57 58 60 61 61 61 61 61 60 59 57 56 56 56 56 55 54 55 53 49 44 41 42 44 45 46 47 47 48 50 54 54 52 56 64 68 69 70 72 75 78 81 83 84 87 89 91 92 94 95
17 17 18 17 17 17 17 18 20 21 21 21 21 22 23 24 25 25 26 27 29 31 33 34 36 37 39 40 40 42 43 44 47 50 52 54 56 57 58 60 60 61 60 59 59 58 58 58 56 53 50 50 52 53 54 53 49 44 42 43 44 46 48 49 51 52 52 54 58 60 58 60 67 72 73 74 77 79 82 85 88 90 91 92 93 95 96 97
16 16 16 16 16 17 17 19 20 21 21 21 21 22 23 24 25 26 27 29 30 32 34 35 36 37 39 40 42 43 45 46 48 52 54 56 57 58 59 60 60 59 58 57 57 56 56 56 54 50 49 50 50 49 46 45 43 42 43 45 46 49 51 53 55 56 56 57 61 65 63 63 69 75 76 78 81 83 86 89 91 93 95 96 96 97 98 99
15 15 15 16 16 17 18 19 20 21 21 21 21 22 23 25 26 28 29 30 31 33 34 35 36 38 39 41 43 45 47 50 52 54 56 57 58 58 58 58 58 58 57 56 55 53 51 51 50 50 52 52 48 42 39 39 41 42 44 47 49 52 54 57 59 60 61 61 63 69 71 69 71 76 79 82 84 86 89 92 94 96 97 98 98 98 99 101
14 14 15 16 17 18 18 19 20 21 22 23 23 24 25 27 28 29 30 31 32 33 34 36 37 39 40 43 45 48 50 53 55 56 57 57 57 57 57 57 57 56 55 54 52 48 46 48 49 50 52 49 43 40 39 40 41 43 45 49 53 55 57 61 63 65 66 66 66 71 76 76 76 79 82 86 89 90 92 95 96 98 98 99 99 100 102 104
14 14 15 16 17 18 19 20 21 22 23 24 25 26 27 28 29 30 31 32 32 34 35 37 39 41 43 45 47 50 52 54 56 56 57 57 57 56 57 57 56 54 53 50 48 46 46 47 48 48 48 45 41 41 42 43 44 46 49 52 55 58 61 64 68 70 71 72 72 73 78 82 83 84 87 91 94 95 97 98 99 100 100 101 102 104 106 109
14 14 15 16 17 18 20 20 21 23 24 25 26 26 27 27 28 29 31 32 34 36 37 39 42 44 46 48 50 51 53 54 55 56 56 56 56 56 55 55 53 51 49 48 48 47 46 45 43 42 44 45 43 44 45 47 49 50 53 57 59 62 65 68 71 74 75 76 77 79 81 85 89 90 92 95 98 100 100 101 101 103 104 105 106 109 111 114
14 14 15 16 17 18 19 20 21 23 24 25 25 26 26 27 29 30 32 34 36 38 40 42 44 46 47 49 50 51 52 53 53 54 54 55 55 54 52 51 50 49 49 48 48 46 42 39 37 38 42 46 46 46 48 51 53 55 58 61 64 66 68 72 75 78 79 79 82 85 86 88 91 94 96 98 101 103 103 103 104 106 108 109 111 113 116 118
13 13 14 16 17 17 18 19 21 22 23 24 25 26 28 30 31 33 35 37 38 40 42 43 45 47 48 49 50 51 52 52 52 53 53 52 51 50 49 49 49 48 47 45 42 39 36 35 36 38 41 46 48 49 51 54 56 58 62 65 67 69 72 76 80 83 83 82 85 88 90 91 93 95 96 98 101 103 106 107 109 110 112 114 116 118 121 123
13 13 14 16 16 17 18 19 21 22 24 25 27 28 30 32 33 35 37 38 40 41 43 44 46 47 48 49 50 50 51 51 51 51 50 49 48 48 48 48 46 43 40 37 35 34 34 35 37 39 41 46 49 52 55 57 59 61 65 69 71 73 76 79 83 88 89 88 89 91 93 95 96 97 96 97 98 102 107 110 113 115 117 119 121 124 126 128
Wind_Direction
212 211 210 209 208 207 208 209 210 211 212 213 214 215 217 219 220 221 221 222 223 223 224 225 227 229 231 233 236 238 241 243 246 247 250 252 254 257 260 262 264 266 268 270 271 273 275 276 278 279 281 282 284 285 286 288 289 290 292 293 294 295 296 296 296 296 296 296 296 295 294 293 293 293 295 296 296 296 296 296 297 297 298 298 298 298 299 299
216 214 213 211 209 208 208 209 211 212 212 213 214 215 217 219 220 222 223 224 225 226 227 228 229 231 233 235 238 240 243 245 247 249 251 253 255 258 260 263 265 267 269 271 274 276 277 279 281 282 283 285 286 287 288 290 291 293 294 295 295 295 296 296 296 297 297 296 295 295 294 294 294 296 297 297 297 297 297 298 298 298 299 299 299 299 299 299
220 218 217 215 212 209 208 209 211 212 212 213 214 216 218 220 221 222 224 225 226 227 229 231 232 234 236 238 240 242 244 247 249 252 254 256 258 260 263 265 268 270 272 274 277 278 280 281 282 284 285 287 288 290 291 292 293 294 295 295 296 296 297 297 298 298 297 297 295 295 294 295 296 297 297 297 297 297 298 298 298 299 299 299 299 299 299 299
224 221 218 217 216 212 209 209 211 213 213 212 214 215 218 220 222 223 225 226 227 229 231 233 234 236 238 240 242 245 246 249 251 254 256 259 261 263 266 268 270 272 274 276 278 280 281 283 284 286 288 289 290 291 292 293 294 295 295 296 297 298 298 299 299 299 298 297 296 296 296 296 296 296 296 296 297 298 298 299 299 300 300 300 299 299 299 300
226 222 217 216 216 214 210 209 211 213 213 213 213 215 218 221 223 225 226 227 228 230 232 234 236 238 240 242 244 246 248 251 253 255 258 260 263 265 267 270 271 273 275 277 279 281 283 285 286 287 288 290 291 292 293 294 294 295 296 297 298 299 300 300 300 299 299 298 297 297 296 296 296 296 296 296 298 298 299 300 301 301 300 300 300 300 300 301
225 221 215 214 215 214 211 209 212 214 214 214 214 215 218 220 223 226 227 229 230 232 233 235 237 240 242 244 246 248 250 252 255 257 260 262 264 266 268 270 272 275 277 279 281 283 284 286 286 287 288 290 291 292 293 294 295 296 298 299 300 300 301 301 301 300 300 299 298 297 296 296 296 297 297 297 298 299 300 301 301 301 301 300 301 301 302 302
221 217 213 213 213 213 211 210 212 213 214 214 214 215 218 221 223 226 228 230 232 234 235 238 240 242 244 246 248 250 252 255 257 259 261 264 266 268 270 272 274 276 278 280 282 283 284 285 286 287 288 289 290 291 293 295 297 298 299 300 301 302 302 301 301 300 299 298 297 296 296 296 297 297 297 298 299 299 301 302 302 302 301 301 302 303 303 303
210 209 207 209 211 211 210 210 212 213 213 213 214 215 218 221 224 226 229 231 233 235 238 240 242 244 246 248 251 253 255 256 258 261 263 265 268 270 272 274 276 278 279 281 282 283 284 285 286 287 288 289 290 292 295 297 298 299 300 301 302 303 302 301 300 299 298 297 296 295 295 296 297 298 298 299 300 301 302 302 303 302 302 303 303 303 303 303
186 194 198 202 205 207 208 210 212 213 213 213 213 215 218 221 224 227 229 232 234 236 238 241 244 246 249 251 253 255 257 258 260 263 265 267 269 272 274 276 277 279 280 281 282 283 284 285 286 287 289 290 293 295 297 298 300 301 302 303 303 303 302 301 299 298 296 296 296 296 296 297 298 299 300 301 301 302 303 303 303 302 302 303 303 303 303 304
141 168 182 189 195 200 204 208 211 212 212 212 213 215 217 221 224 227 230 232 234 237 240 242 245 248 250 252 254 257 258 261 263 265 267 269 271 272 274 276 278 279 280 281 282 283 284 285 286 289 291 294 296 298 299 301 302 303 304 304 304 304 302 301 299 298 297 297 297 297 297 298 300 301 302 302 302 303 303 303 303 303 303 304 304 304 304 305
111 134 157 171 182 191 199 204 208 209 210 212 213 215 218 221 224 227 230 232 235 238 241 244 246 249 251 253 256 258 260 262 264 266 268 270 271 273 274 276 277 278 279 280 281 283 284 286 288 291 293 296 298 300 302 303 304 305 305 305 305 304 302 301 299 298 298 298 299 299 298 299 301 302 303 303 303 303 303 303 303 303 304 304 304 305 305 307
103 115 132 147 162 176 190 198 203 205 208 211 214 216 218 221 224 227 230 233 236 238 241 244 247 250 252 255 257 260 262 264 266 267 269 270 272 273 274 275 277 278 279 280 282 284 286 288 290 293 295 298 301 303 305 305 306 306 306 306 305 304 303 301 300 299 299 299 299 300 300 300 302 303 303 303 302 302 303 303 304 304 305 305 305 306 307 308
106 110 117 130 145 161 177 189 197 201 204 209 214 217 219 221 224 227 230 233 236 239 242 245 248 251 254 256 259 261 263 265 266 267 269 271 272 273 274 275 276 278 279 281 283 285 288 290 292 295 298 301 303 305 306 306 306 306 306 306 305 305 303 301 300 299 298 299 299 300 301 301 303 304 303 302 302 303 303 305 306 306 306 306 307 308 308 310
118 117 119 128 141 155 169 180 190 198 203 208 213 217 219 222 224 227 230 233 237 240 243 247 250 252 255 258 259 261 262 264 265 267 269 271 272 273 275 276 277 279 281 283 285 287 289 292 294 297 299 301 303 305 306 307 306 306 306 306 306 304 303 301 300 299 299 300 300 301 301 301 302 303 302 302 303 304 305 307 307 306 307 307 308 309 310 311
129 128 128 132 142 155 166 177 187 196 202 207 212 216 219 222 225 228 231 234 238 242 246 249 251 253 255 257 258 260 262 264 266 268 269 270 271 273 274 276 278 280 282 284 286 288 291 293 296 298 300 301 303 305 306 307 306 306 306 306 306 304 304 302 301 301 301 301 301 301 301 300 302 303 303 304 305 306 307 308 307 307 308 308 309 310 311 311
136 136 136 137 146 160 169 179 189 196 201 206 212 216 220 224 227 230 233 236 240 244 247 249 251 252 254 256 258 260 262 264 266 267 268 269 271 272 274 277 279 281 283 284 287 289 292 295 297 298 300 301 303 304 305 306 306 306 306 306 305 305 304 303 302 301 301 300 300 301 301 301 302 305 306 307 307 308 308 308 308 308 309 309 310 311 312 312
146 143 143 146 158 173 181 186 193 200 205 209 213 217 221 225 229 232 234 237 240 243 246 248 250 251 253 255 257 259 262 263 265 266 268 270 272 274 276 278 280 282 284 286 288 291 293 295 297 298 300 301 301 302 304 306 307 307 306 306 305 304 304 302 302 301 300 300 300 301 302 302 304 306 307 308 308 308 308 308 308 309 310 310 311 312 312 313
159 158 156 159 171 182 190 196 200 205 210 213 217 221 225 228 231 234 235 237 239 240 241 244 247 249 252 254 257 259 261 263 264 266 268 270 273 275 277 279 281 283 285 288 290 292 293 295 296 298 299 301 301 301 303 306 307 306 305 305 305 304 303 302 301 301 301 301 301 303 303 304 306 308 308 309 308 308 308 308 309 310 310 311 312 313 313 313
178 184 180 179 185 190 195 203 207 209 214 219 222 225 229 232 234 235 236 237 239 241 241 242 246 249 252 255 258 260 263 265 266 268 271 273 275 277 279 281 283 284 287 290 292 293 294 295 297 298 299 301 302 301 303 305 305 305 304 304 304 303 303 302 301 301 301 302 303 304 305 306 308 309 309 308 307 308 308 309 310 310 311 312 313 313 313 312
147 206 212 204 202 203 203 207 211 213 214 218 223 226 228 231 233 235 235 236 240 243 245 247 251 253 255 257 260 263 265 268 270 272 274 276 278 280 282 284 286 288 290 292 294 295 296 297 298 298 299 301 301 301 302 304 304 304 303 303 303 303 303 303 302 302 302 303 304 306 308 308 308 309 308 307 307 308 309 310 311 311 312 313 313 313 312 310
121 168 223 227 225 222 220 218 218 219 218 217 219 222 225 228 231 234 236 236 238 243 247 251 254 256 259 261 263 266 268 269 271 274 276 278 280 282 284 286 288 290 292 293 295 296 298 300 300 300 300 301 300 300 301 303 303 303 303 303 303 303 303 303 303 303 304 305 306 308 310 309 309 308 307 307 307 308 310 311 311 312 313 312 312 312 311 310
316 266 243 241 243 246 245 239 231 228 226 224 223 224 226 230 234 237 239 239 239 243 247 251 254 257 258 260 262 264 267 270 272 275 278 280 281 282 284 285 287 290 292 294 296 298 300 301 302 301 301 300 300 300 302 303 303 303 303 303 303 304 304 304 304 305 305 306 308 309 310 309 308 307 306 307 308 309 310 311 312 313 311 311 313 312 310 312
314 298 283 268 260 256 258 258 252 245 241 237 235 234 233 236 239 241 243 244 244 245 246 248 250 252 253 256 259 263 267 270 274 278 280 281 281 282 283 285 288 290 293 295 297 299 301 302 302 302 301 300 300 301 302 303 303 303 303 304 304 304 304 304 305 306 306 308 308 308 308 308 307 306 307 307 309 310 310 312 314 312 310 312 314 311 312 314
308 297 287 280 275 270 267 266 263 260 255 249 244 243 243 243 244 244 244 245 246 246 246 247 249 252 255 258 260 264 268 272 277 280 281 281 281 282 284 286 289 292 294 296 298 299 301 302 302 302 301 301 301 302 303 303 304 304 304 304 304 305 305 305 305 306 307 309 309 308 308 308 307 305 306 307 308 308 311 316 313 309 310 314 313 312 314 315
305 295 286 278 275 272 271 270 268 266 263 258 252 248 248 248 248 247 245 243 244 246 248 250 252 256 259 262 264 267 270 274 277 280 281 281 282 283 286 288 291 294 295 297 299 300 301 302 302 302 301 302 302 303 303 304 304 304 304 304 305 305 305 306 306 307 308 308 308 308 308 309 307 305 305 307 307 311 317 317 310 308 313 315 313 313 314 314
304 295 286 279 274 270 268 267 267 266 265 263 259 255 252 250 248 247 245 244 243 244 247 252 255 257 259 262 265 267 270 273 276 279 281 282 283 285 288 291 293 295 296 297 300 301 302 303 302 302 302 302 303 303 303 304 304 304 304 305 305 306 306 307 307 308 308 308 308 308 308 310 307 305 305 306 310 319 322 313 305 310 315 313 313 314 313 314
304 296 287 280 277 274 271 267 264 262 261 262 261 260 257 255 252 250 248 247 246 245 247 251 255 257 258 261 265 268 272 275 278 280 282 284 286 289 291 293 294 295 296 298 301 302 303 303 302 302 302 303 303 303 304 304 304 304 304 305 306 307 307 307 308 308 308 308 308 309 309 309 307 303 302 307 318 326 318 306 305 312 314 312 313 313 313 314
304 298 291 286 282 279 276 271 265 260 258 258 258 258 258 257 256 255 252 251 250 248 250 253 255 258 261 263 267 270 273 275 279 282 284 286 288 290 292 293 294 296 297 299 301 302 303 302 301 302 302 302 303 304 304 305 305 305 305 306 306 307 307 307 308 308 308 309 309 310 309 309 307 301 301 313 325 324 310 303 307 312 312 312 313 313 313 314
303 299 294 291 288 285 280 274 267 261 258 256 255 255 256 256 256 257 255 253 253 251 253 256 258 262 264 267 269 271 273 275 279 282 284 286 288 290 291 293 294 296 298 300 301 302 302 301 301 302 302 303 304 305 305 305 306 306 306 307 307 307 307 307 308 308 309 310 311 311 309 308 304 298 305 321 327 318 305 304 308 311 312 312 313 313 313 314
301 297 295 293 291 288 283 276 269 263 259 256 254 252 253 253 254 255 255 255 255 254 255 259 262 266 269 270 271 272 274 277 279 282 284 286 288 290 291 293 295 297 299 300 301 302 302 302 302 303 304 305 306 306 306 306 306 307 307 307 307 307 307 308 309 309 311 312 312 311 308 306 299 297 311 328 323 312 306 305 309 311 312 312 312 312 313 314
298 296 294 292 291 289 284 276 270 265 260 257 254 251 249 250 251 253 255 256 256 255 256 259 263 267 270 272 274 275 278 280 280 281 283 285 288 290 292 294 296 298 300 300 301 303 303 303 304 305 306 307 307 306 306 307 307 307 307 307 306 307 308 309 310 310 312 313 312 309 306 303 296 299 318 327 317 312 308 306 309 311 313 312 311 312 313 313
298 296 295 293 292 289 283 275 269 265 261 258 255 250 247 246 247 250 254 255 254 255 256 258 263 268 272 274 276 278 280 280 280 281 283 285 288 291 294 296 297 298 299 300 302 303 304 305 305 306 308 308 307 307 307 307 307 308 307 306 307 307 309 311 311 312 313 312 309 305 302 298 295 303 320 322 316 315 310 308 310 311 312 311 311 312 313 313
298 297 296 294 292 289 282 274 267 263 261 259 255 250 246 244 245 249 252 252 251 253 255 258 264 269 272 275 277 279 279 279 279 281 283 286 290 293 295 297 298 299 299 300 301 302 304 305 306 308 309 308 307 307 307 307 307 307 306 307 308 308 310 313 313 313 313 310 306 301 297 294 295 305 318 319 317 316 311 310 310 310 311 311 312 313 313 314
299 298 297 295 292 288 282 273 266 262 259 258 255 250 246 244 245 247 249 248 249 251 254 257 262 266 271 275 278 279 278 278 279 282 285 288 292 294 296 298 299 300 300 300 301 302 304 305 307 308 308 307 307 307 306 306 306 306 307 307 308 310 313 315 315 314 312 308 303 299 296 295 297 306 316 318 318 315 312 312 312 311 311 312 313 313 313 314
300 299 296 294 291 288 281 272 264 260 258 257 255 251 248 246 246 247 248 248 248 250 253 257 260 266 272 275 275 275 275 277 280 284 288 291 292 294 296 299 300 300 301 301 302 303 305 307 308 308 308 307 306 306 306 305 305 306 307 308 309 311 313 315 316 316 312 307 303 300 299 297 299 307 315 319 318 315 314 314 313 311 312 313 313 313 314 314
301 298 295 293 290 286 280 271 263 259 257 256 254 252 249 247 247 247 248 248 248 250 254 258 261 266 271 272 272 273 275 278 282 287 290 292 293 294 296 298 299 300 301 302 303 305 306 308 308 308 307 306 305 306 305 305 305 306 308 308 310 312 313 315 317 315 310 308 307 304 302 299 300 308 315 319 318 315 315 315 313 312 312 313 313 313 314 313
300 297 295 293 290 285 279 271 265 261 258 256 254 252 249 248 247 247 247 248 250 252 255 259 263 267 270 272 275 277 280 283 286 288 290 291 293 295 297 298 299 300 302 303 305 306 307 308 308 307 306 305 305 306 305 305 306 307 309 309 311 313 314 315 316 312 307 310 311 308 305 300 301 309 315 317 318 317 317 316 315 313 313 313 313 313 313 312
299 296 294 291 288 283 278 272 266 262 260 257 255 253 251 250 250 250 249 249 251 254 257 261 265 268 271 274 277 280 284 287 288 289 290 291 293 295 297 299 300 302 303 305 306 306 307 308 308 307 305 305 305 305 304 304 306 308 309 310 311 313 316 315 312 308 307 311 312 311 308 301 302 310 315 315 316 316 316 316 315 314 313 313 313 312 312 311
298 295 292 288 285 281 276 271 267 263 261 259 257 255 253 254 255 255 252 250 251 254 258 261 265 268 272 275 278 283 286 287 288 289 290 292 294 296 298 300 301 303 304 305 306 306 306 307 307 306 305 304 304 303 303 304 306 308 308 309 312 314 315 313 311 308 309 312 311 315 313 303 303 311 314 314 316 315 314 314 313 312 311 311 311 310 309 309
296 293 289 285 281 277 273 270 266 263 260 259 257 256 254 254 255 257 256 253 253 256 260 264 268 271 274 278 281 283 285 287 288 291 292 294 296 298 300 301 303 304 305 305 305 305 306 307 307 305 304 304 303 303 304 306 307 306 307 310 313 314 313 312 311 309 311 312 311 316 316 305 304 311 313 313 314 313 312 312 311 309 309 309 309 308 308 308
295 290 286 282 277 274 271 269 265 263 261 259 257 256 255 255 254 255 256 257 259 263 266 270 273 276 278 280 281 283 285 289 291 293 294 295 298 300 301 303 304 304 304 304 305 305 306 306 306 305 304 304 303 303 305 306 306 306 309 312 313 313 311 311 311 310 311 312 310 315 316 307 306 311 312 312 313 311 311 310 310 309 309 309 309 309 309 309
292 287 283 279 275 273 271 269 267 264 262 259 258 258 258 259 258 258 259 261 264 268 271 274 277 279 280 281 284 286 289 292 293 293 295 297 300 302 302 303 303 303 303 304 305 305 306 306 305 305 304 304 303 304 305 305 305 308 311 313 313 312 312 311 311 310 311 310 310 313 314 310 308 310 311 312 312 311 311 311 310 310 310 310 310 310 310 310
289 284 281 277 274 272 270 269 268 266 264 262 261 262 264 264 264 264 265 267 269 272 275 277 279 281 284 287 290 291 293 293 293 295 297 300 301 302 302 302 303 303 304 304 305 305 305 305 305 305 305 304 303 303 304 304 307 310 312 313 313 312 311 311 310 310 310 310 310 312 314 312 309 309 310 312 312 312 312 311 311 310 310 310 310 310 310 310
287 282 279 276 273 272 271 270 269 269 268 268 268 269 270 270 271 271 272 273 274 276 278 280 283 286 289 292 293 293 293 294 295 297 300 301 302 302 302 302 303 303 303 304 304 305 305 305 304 304 303 301 301 302 304 306 308 311 312 313 313 311 310 310 310 310 311 312 312 312 314 313 310 309 311 312 312 312 312 311 310 310 310 310 310 309 309 309
287 282 280 279 276 274 272 272 272 272 273 273 273 273 273 275 276 277 278 278 279 280 283 285 288 290 292 292 293 293 295 296 297 299 300 301 301 301 302 302 302 303 303 304 305 306 306 304 304 303 300 299 300 302 304 306 308 311 312 312 311 310 310 309 309 310 311 312 312 311 312 313 311 310 312 312 311 311 311 310 310 310 310 310 310 309 309 308
286 282 281 280 278 277 275 275 276 278 279 279 278 278 278 279 280 281 281 283 285 286 288 289 291 291 292 293 294 295 297 298 299 299 300 300 301 301 302 302 302 303 304 305 306 306 305 304 303 303 300 300 303 305 306 306 308 310 311 310 310 310 310 310 310 310 310 311 312 311 312 312 310 310 311 311 310 310 310 310 310 309 309 309 309 309 308 308
288 285 284 282 279 279 279 278 279 280 281 282 283 282 282 282 283 284 285 286 288 289 290 291 292 292 293 294 295 297 298 299 299 299 300 301 301 301 302 302 304 305 305 306 305 305 305 303 303 302 300 302 305 307 307 308 309 310 310 310 310 310 310 310 309 309 310 311 312 311 311 311 310 310 311 310 310 310 310 310 309 309 308 308 308 308 308 308
291 289 287 284 281 279 280 280 280 279 280 281 282 283 283 284 285 286 287 288 290 291 292 292 294 294 295 296 297 298 298 299 300 300 301 301 302 303 303 304 305 306 306 306 305 305 304 303 302 301 300 303 306 307 308 309 310 311 311 310 310 310 310 309 309 309 310 311 311 310 310 310 311 312 312 311 311 311 310 310 309 309 308 308 309 309 309 309
295 291 288 284 282 281 281 281 280 280 280 281 283 284 284 286 287 288 289 291 292 293 294 295 295 296 297 297 298 298 299 300 301 301 302 302 303 304 305 305 306 306 306 306 305 304 304 303 302 302 301 304 308 309 310 311 312 313 313 311 311 311 310 310 309 309 309 310 311 311 311 311 312 313 312 312 311 311 310 310 310 309 309 309 310 310 309 309
296 293 289 286 284 284 284 283 283 282 282 284 285 287 289 291 292 293 294 295 295 296 296 297 297 297 297 298 298 299 300 301 301 301 302 303 304 305 306 306 306 306 306 305 305 304 304 303 302 303 304 306 309 310 311 312 313 314 313 312 311 311 311 310 310 309 310 312 312 311 311 312 312 312 312 312 311 311 311 310 310 310 310 310 310 309 309 309
298 294 292 289 288 289 288 287 286 286 287 289 292 294 296 297 297 297 297 297 297 296 297 297 297 298 298 299 300 301 301 301 302 303 304 304 305 305 306 306 306 306 306 305 304 304 304 303 303 305 306 307 308 310 310 311 312 313 312 311 311 311 312 312 311 310 311 312 311 310 311 311 310 311 311 311 311 311 311 311 310 310 309 309 309 309 309 310
300 297 295 294 293 293 292 291 291 291 293 296 298 298 298 298 298 298 297 297 297 297 298 298 299 300 301 301 301 301 302 302 303 304 304 305 306 306 307 307 307 307 306 305 304 304 304 304 305 306 306 306 306 308 309 310 311 311 311 310 311 313 313 313 311 310 311 312 311 310 310 310 310 311 311 311 311 311 310 309 309 309 309 309 310 310 310 310